| time (UTC) | temp F | wind direction | speed knots | gust knots | rain 1hr in | rain 24hr in | rain mn in | humidity % | barometer mb |
| 20260503020111 | 48 | 30 | 5.2 | 0.0 | 0.00 | 0.00 | 0.00 | 61 | 1018.0 |
| 20260503013110 | 52 | 350 | 1.7 | 0.0 | 0.00 | 0.00 | 0.00 | 53 | 1019.0 |
| 20260503012032 | 55 | 350 | 1.7 | 0.0 | 0.00 | 0.00 | 0.00 | 43 | |
| 20260503010239 | 52 | 0 | 1.7 | 0.0 | 0.00 | 0.00 | 0.00 | 50 | 1019.0 |
| 20260503003104 | 54 | 20 | 4.3 | 0.0 | 0.00 | 0.00 | 0.00 | 50 | 1019.0 |
| 20260503002031 | 57 | 10 | 4.3 | 0.0 | 0.00 | 0.00 | 0.00 | 41 | |
| 20260503000105 | 54 | 360 | 2.6 | 0.0 | 0.00 | 0.00 | 0.00 | 50 | 1019.0 |
| 20260502233109 | 57 | 80 | 4.3 | 0.0 | 0.00 | 0.00 | 0.00 | 41 | 1019.0 |
| 20260502232025 | 59 | 90 | 4.3 | 0.0 | 0.00 | 0.00 | 0.00 | 38 | |
| 20260502230104 | 59 | 100 | 4.3 | 0.0 | 0.00 | 0.00 | 0.00 | 38 | 1019.0 |
| 20260502223110 | 59 | 100 | 4.3 | 0.0 | 0.00 | 0.00 | 0.00 | 38 | 1020.0 |
| 20260502222032 | 61 | 100 | 4.3 | 0.0 | 0.00 | 0.00 | 0.00 | 36 | |
| 20260502220239 | 59 | 100 | 4.3 | 0.0 | 0.00 | 0.00 | 0.00 | 38 | 1019.0 |
| 20260502213109 | 63 | 120 | 5.2 | 0.0 | 0.00 | 0.00 | 0.00 | 31 | 1020.0 |
| 20260502212031 | 61 | 130 | 6.1 | 0.0 | 0.00 | 0.00 | 0.00 | 33 | |
| 20260502210111 | 63 | 120 | 5.2 | 0.0 | 0.00 | 0.00 | 0.00 | 29 | 1020.0 |
| 20260502203109 | 63 | 130 | 5.2 | 0.0 | 0.00 | 0.00 | 0.00 | 31 | 1020.0 |
| 20260502202032 | 61 | 130 | 4.3 | 0.0 | 0.00 | 0.00 | 0.00 | 36 | |
| 20260502200104 | 63 | 130 | 4.3 | 0.0 | 0.00 | 0.00 | 0.00 | 31 | 1020.0 |
| 20260502193110 | 63 | 130 | 5.2 | 0.0 | 0.00 | 0.00 | 0.00 | 33 | 1020.0 |
| 20260502192031 | 61 | 140 | 6.1 | 0.0 | 0.00 | 0.00 | 0.00 | 38 | |
| 20260502190105 | 63 | 140 | 5.2 | 0.0 | 0.00 | 0.00 | 0.00 | 33 | 1020.0 |
| 20260502183110 | 64 | 130 | 5.2 | 0.0 | 0.00 | 0.00 | 0.00 | 34 | 1020.0 |
| 20260502182032 | 64 | 130 | 6.1 | 0.0 | 0.00 | 0.00 | 0.00 | 36 | |
| 20260502180112 | 66 | 130 | 5.2 | 0.0 | 0.00 | 0.00 | 0.00 | 32 | 1020.0 |
| 20260502170238 | 72 | 180 | 2.6 | 0.0 | 0.00 | 0.00 | 0.00 | 26 | 1020.0 |
| 20260502163110 | 72 | 0 | 1.7 | 0.0 | 0.00 | 0.00 | 0.00 | 26 | 1020.0 |
| 20260502162031 | 72 | 290 | 4.3 | 0.0 | 0.00 | 0.00 | 0.00 | 28 | |
| 20260502160105 | 72 | 0 | 1.7 | 0.0 | 0.00 | 0.00 | 0.00 | 24 | 1021.0 |
| 20260502151957 | 72 | 190 | 4.3 | 0.0 | 0.00 | 0.00 | 0.00 | 24 | |
| 20260502150111 | 72 | 210 | 4.3 | 0.0 | 0.00 | 0.00 | 0.00 | 24 | 1021.0 |
| 20260502140112 | 72 | 310 | 4.3 | 0.0 | 0.00 | 0.00 | 0.00 | 26 | 1022.0 |
| 20260502130239 | 72 | 200 | 5.2 | 0.0 | 0.00 | 0.00 | 0.00 | 24 | 1022.0 |
| 20260502123109 | 70 | 0 | 2.6 | 0.0 | 0.00 | 0.00 | 0.00 | 26 | 1023.0 |
| 20260502122034 | 72 | 160 | 1.7 | 0.0 | 0.00 | 0.00 | 0.00 | 30 | |
| 20260502120105 | 70 | 0 | 1.7 | 0.0 | 0.00 | 0.00 | 0.00 | 26 | 1023.0 |
| 20260502113110 | 70 | 100 | 6.1 | 0.0 | 0.00 | 0.00 | 0.00 | 26 | 1023.0 |
| 20260502112033 | 68 | 340 | 4.3 | 0.0 | 0.00 | 0.00 | 0.00 | 30 | |
| 20260502110106 | 68 | 10 | 2.6 | 0.0 | 0.00 | 0.00 | 0.00 | 30 | 1024.0 |
| 20260502103109 | 66 | 360 | 4.3 | 0.0 | 0.00 | 0.00 | 0.00 | 34 | 1024.0 |
| 20260502102034 | 66 | 350 | 4.3 | 0.0 | 0.00 | 0.00 | 0.00 | 37 | |
| 20260502100113 | 66 | 0 | 1.7 | 0.0 | 0.00 | 0.00 | 0.00 | 34 | 1024.0 |
| 20260502090241 | 64 | 0 | 0.9 | 0.0 | 0.00 | 0.00 | 0.00 | 34 | 1025.0 |
| 20260502080106 | 63 | 350 | 2.6 | 0.0 | 0.00 | 0.00 | 0.00 | 36 | 1025.0 |
| 20260502070105 | 57 | 0 | 1.7 | 0.0 | 0.00 | 0.00 | 0.00 | 50 | 1025.0 |
| 20260502063110 | 54 | 310 | 2.6 | 0.0 | 0.00 | 0.00 | 0.00 | 62 | 1025.0 |
| 20260502062035 | 54 | 340 | 4.3 | 0.0 | 0.00 | 0.00 | 0.00 | 58 | |
| 20260502060113 | 52 | 350 | 4.3 | 0.0 | 0.00 | 0.00 | 0.00 | 57 | 1025.0 |
| 20260502053109 | 48 | 330 | 4.3 | 0.0 | 0.00 | 0.00 | 0.00 | 66 | 1025.0 |
| 20260502052034 | 46 | 320 | 4.3 | 0.0 | 0.00 | 0.00 | 0.00 | 65 | |
| 20260502050113 | 45 | 320 | 4.3 | 0.0 | 0.00 | 0.00 | 0.00 | 70 | 1025.0 |
| 20260502043110 | 45 | 330 | 4.3 | 0.0 | 0.00 | 0.00 | 0.00 | 70 | 1025.0 |
| 20260502042035 | 46 | 330 | 4.3 | 0.0 | 0.00 | 0.00 | 0.00 | 65 | |
| 20260502040241 | 45 | 330 | 5.2 | 0.0 | 0.00 | 0.00 | 0.00 | 70 | 1025.0 |
| 20260502033104 | 46 | 340 | 7.0 | 0.0 | 0.00 | 0.00 | 0.00 | 65 | 1025.0 |
| 20260502032033 | 46 | 340 | 7.8 | 0.0 | 0.00 | 0.00 | 0.00 | 65 | |
| 20260502030241 | 46 | 340 | 7.0 | 0.0 | 0.00 | 0.00 | 0.00 | 65 | 1025.0 |
| 20260502023109 | 48 | 330 | 7.0 | 0.0 | 0.00 | 0.00 | 0.00 | 61 | 1025.0 |
| 20260502022032 | 50 | 330 | 7.8 | 0.0 | 0.00 | 0.00 | 0.00 | 57 |